When you browse on this site, cookies collect data to enhance your experience and personalize the content and advertising you see.
Visit our Privacy Policy to learn more. By continuing to use the site, you agree to this use of cookies and data.
  • In Österreich
  • Länderverzeichnis
  • Für 7 Tage
  • Wassertemperatur
  • Wetterkarte
  • News
  • Widgets
  • user-avatar
    Anmelden

    Stündliche Wetter La Paz

    Heute, 18 Oktober, Freitag

    Zeit Temperatur Niederschläge Wind Luftdruck Luftfeuchtigkeit
    00:00 +7°C° 0 mm 1 m/S 473 mmHg 83%
    01:00 +7°C° 0 mm 1 m/S 473 mmHg 84%
    02:00 +7°C° 0 mm 1 m/S 473 mmHg 85%
    03:00 +6°C° 0 mm 1 m/S 472 mmHg 86%
    04:00 +6°C° 0 mm 1 m/S 472 mmHg 87%
    05:00 +7°C° 0 mm 1 m/S 473 mmHg 84%
    06:00 +6°C° 0 mm 2 m/S 474 mmHg 80%
    07:00 +7°C° 0 mm 2 m/S 475 mmHg 76%
    08:00 +8°C° 0.1 mm 3 m/S 475 mmHg 72%
    09:00 +9°C° 0.1 mm 3 m/S 476 mmHg 67%
    10:00 +10°C° 0.1 mm 4 m/S 476 mmHg 63%
    11:00 +10°C° 0.2 mm 5 m/S 476 mmHg 62%
    12:00 +10°C° 0.2 mm 5 m/S 475 mmHg 62%
    13:00 +10°C° 0.2 mm 5 m/S 475 mmHg 62%
    14:00 +10°C° 0.2 mm 5 m/S 474 mmHg 63%
    15:00 +9°C° 0.2 mm 5 m/S 474 mmHg 65%
    16:00 +8°C° 0.2 mm 5 m/S 473 mmHg 66%
    17:00 +8°C° 0 mm 5 m/S 474 mmHg 70%
    18:00 +7°C° 0 mm 4 m/S 474 mmHg 73%
    19:00 +7°C° 0 mm 3 m/S 474 mmHg 76%
    20:00 +7°C° 0 mm 3 m/S 474 mmHg 77%
    21:00 +7°C° 0 mm 3 m/S 475 mmHg 78%
    22:00 +7°C° 0 mm 2 m/S 475 mmHg 79%
    23:00 +7°C° 0.2 mm 2 m/S 475 mmHg 81%

    Morgen, 19 Oktober, Samstag

    Zeit Temperatur Niederschläge Wind Luftdruck Luftfeuchtigkeit
    00:00 +6°C° 0.2 mm 2 m/S 474 mmHg 83%
    01:00 +7°C° 0.2 mm 1 m/S 474 mmHg 85%
    02:00 +6°C° 0.1 mm 2 m/S 474 mmHg 85%
    03:00 +6°C° 0.1 mm 2 m/S 474 mmHg 86%
    04:00 +5°C° 0.1 mm 2 m/S 473 mmHg 87%
    05:00 +6°C° 0.1 mm 2 m/S 474 mmHg 86%
    06:00 +6°C° 0.1 mm 2 m/S 475 mmHg 84%
    07:00 +7°C° 0.1 mm 1 m/S 475 mmHg 82%
    08:00 +7°C° 0.5 mm 2 m/S 475 mmHg 78%
    09:00 +8°C° 0.5 mm 2 m/S 476 mmHg 75%
    10:00 +9°C° 0.5 mm 2 m/S 476 mmHg 71%
    11:00 +9°C° 0.4 mm 2 m/S 476 mmHg 69%
    12:00 +10°C° 0.4 mm 3 m/S 476 mmHg 68%
    13:00 +10°C° 0.4 mm 3 m/S 475 mmHg 66%
    14:00 +10°C° 0.5 mm 3 m/S 475 mmHg 68%
    15:00 +10°C° 0.5 mm 3 m/S 475 mmHg 70%
    16:00 +8°C° 0.5 mm 4 m/S 475 mmHg 72%
    17:00 +7°C° 0.8 mm 4 m/S 474 mmHg 78%
    18:00 +5°C° 0.8 mm 4 m/S 473 mmHg 83%
    19:00 +4°C° 0.8 mm 4 m/S 473 mmHg 89%
    20:00 +4°C° 0.8 mm 3 m/S 473 mmHg 84%
    21:00 +4°C° 0.8 mm 3 m/S 474 mmHg 79%
    22:00 +5°C° 0.8 mm 2 m/S 474 mmHg 73%
    23:00 +5°C° 0 mm 2 m/S 474 mmHg 72%

    übermorgen, 20 Oktober, Sonntag

    Zeit Temperatur Niederschläge Wind Luftdruck Luftfeuchtigkeit
    00:00 +5°C° 0 mm 2 m/S 473 mmHg 71%
    01:00 +5°C° 0 mm 2 m/S 473 mmHg 70%
    02:00 +5°C° 0 mm 2 m/S 473 mmHg 71%
    03:00 +5°C° 0 mm 2 m/S 473 mmHg 72%
    04:00 +4°C° 0 mm 2 m/S 472 mmHg 73%
    05:00 +5°C° 0 mm 2 m/S 473 mmHg 71%
    06:00 +6°C° 0 mm 2 m/S 474 mmHg 68%
    07:00 +6°C° 0 mm 2 m/S 474 mmHg 66%
    08:00 +8°C° 0 mm 2 m/S 475 mmHg 57%
    09:00 +11°C° 0 mm 1 m/S 476 mmHg 49%
    10:00 +12°C° 0 mm 1 m/S 477 mmHg 40%
    11:00 +13°C° 0.1 mm 1 m/S 476 mmHg 40%
    12:00 +14°C° 0.1 mm 2 m/S 476 mmHg 39%
    13:00 +14°C° 0.1 mm 2 m/S 476 mmHg 38%
    14:00 +14°C° 0.1 mm 2 m/S 476 mmHg 42%
    15:00 +14°C° 0.1 mm 2 m/S 475 mmHg 46%
    16:00 +12°C° 0.1 mm 3 m/S 474 mmHg 50%
    17:00 +12°C° 0.1 mm 2 m/S 474 mmHg 55%
    18:00 +10°C° 0.1 mm 2 m/S 474 mmHg 59%
    19:00 +10°C° 0.1 mm 1 m/S 474 mmHg 64%
    20:00 +10°C° 0 mm 1 m/S 474 mmHg 66%
    21:00 +9°C° 0 mm 1 m/S 474 mmHg 68%
    22:00 +9°C° 0 mm 1 m/S 474 mmHg 71%
    23:00 +8°C° 0 mm 1 m/S 473 mmHg 72%

    21 Oktober, Montag

    Zeit Temperatur Niederschläge Wind Luftdruck Luftfeuchtigkeit
    00:00 +7°C° 0 mm 0 m/S 473 mmHg 73%
    01:00 +7°C° 0 mm 0 m/S 472 mmHg 74%
    02:00 +6°C° 0 mm 0 m/S 472 mmHg 71%
    03:00 +6°C° 0 mm 0 m/S 472 mmHg 69%
    04:00 +6°C° 0 mm 0 m/S 472 mmHg 67%
    05:00 +7°C° 0 mm 0 m/S 473 mmHg 62%
    06:00 +8°C° 0 mm 0 m/S 474 mmHg 57%
    07:00 +10°C° 0 mm 1 m/S 475 mmHg 52%
    08:00 +11°C° 0.1 mm 1 m/S 475 mmHg 48%
    09:00 +12°C° 0.1 mm 1 m/S 476 mmHg 45%
    10:00 +13°C° 0.1 mm 1 m/S 477 mmHg 41%
    11:00 +14°C° 0.3 mm 2 m/S 477 mmHg 41%
    12:00 +14°C° 0.3 mm 2 m/S 476 mmHg 41%
    13:00 +15°C° 0.3 mm 2 m/S 476 mmHg 40%
    14:00 +14°C° 0.3 mm 3 m/S 475 mmHg 43%
    15:00 +13°C° 0.3 mm 3 m/S 475 mmHg 45%
    16:00 +13°C° 0.3 mm 3 m/S 474 mmHg 48%
    17:00 +11°C° 0.1 mm 3 m/S 474 mmHg 57%
    18:00 +10°C° 0.1 mm 2 m/S 473 mmHg 65%
    19:00 +8°C° 0.1 mm 2 m/S 473 mmHg 74%
    20:00 +8°C° 0 mm 2 m/S 473 mmHg 75%
    21:00 +7°C° 0 mm 2 m/S 473 mmHg 76%
    22:00 +7°C° 0 mm 2 m/S 473 mmHg 76%
    23:00 +8°C° 0 mm 1 m/S 473 mmHg 79%

    22 Oktober, Dienstag

    Zeit Temperatur Niederschläge Wind Luftdruck Luftfeuchtigkeit
    00:00 +7°C° 0 mm 1 m/S 473 mmHg 81%
    01:00 +7°C° 0 mm 1 m/S 472 mmHg 83%
    02:00 +6°C° 0 mm 1 m/S 472 mmHg 84%
    03:00 +6°C° 0 mm 1 m/S 472 mmHg 85%
    04:00 +5°C° 0 mm 0 m/S 471 mmHg 87%
    05:00 +6°C° 0 mm 0 m/S 472 mmHg 79%
    06:00 +6°C° 0 mm 0 m/S 473 mmHg 72%
    07:00 +7°C° 0 mm 0 m/S 474 mmHg 64%
    08:00 +10°C° 0 mm 1 m/S 475 mmHg 56%
    09:00 +11°C° 0 mm 1 m/S 476 mmHg 49%
    10:00 +13°C° 0 mm 2 m/S 477 mmHg 41%
    11:00 +14°C° 0 mm 2 m/S 477 mmHg 38%
    12:00 +15°C° 0 mm 2 m/S 476 mmHg 35%
    13:00 +16°C° 0 mm 3 m/S 476 mmHg 32%
    14:00 +14°C° 0.1 mm 3 m/S 476 mmHg 35%
    15:00 +14°C° 0.1 mm 4 m/S 475 mmHg 38%
    16:00 +14°C° 0.1 mm 4 m/S 475 mmHg 41%
    17:00 +12°C° 0.1 mm 4 m/S 474 mmHg 51%
    18:00 +10°C° 0.1 mm 3 m/S 473 mmHg 60%
    19:00 +9°C° 0.1 mm 3 m/S 473 mmHg 70%
    20:00 +8°C° 0 mm 2 m/S 473 mmHg 71%
    21:00 +8°C° 0 mm 2 m/S 473 mmHg 71%
    22:00 +8°C° 0 mm 1 m/S 473 mmHg 72%
    23:00 +8°C° 0 mm 1 m/S 473 mmHg 73%

    23 Oktober, Mittwoch

    Zeit Temperatur Niederschläge Wind Luftdruck Luftfeuchtigkeit
    00:00 +8°C° 0 mm 1 m/S 472 mmHg 74%
    01:00 +7°C° 0 mm 1 m/S 472 mmHg 75%
    02:00 +7°C° 0 mm 1 m/S 472 mmHg 75%
    03:00 +6°C° 0 mm 1 m/S 471 mmHg 75%
    04:00 +6°C° 0 mm 1 m/S 471 mmHg 75%
    05:00 +7°C° 0 mm 1 m/S 472 mmHg 70%
    06:00 +8°C° 0 mm 1 m/S 473 mmHg 65%
    07:00 +9°C° 0 mm 1 m/S 474 mmHg 61%
    08:00 +10°C° 0 mm 1 m/S 475 mmHg 56%
    09:00 +10°C° 0 mm 2 m/S 476 mmHg 51%
    10:00 +13°C° 0 mm 2 m/S 476 mmHg 47%
    11:00 +13°C° 0 mm 2 m/S 476 mmHg 45%
    12:00 +13°C° 0 mm 3 m/S 476 mmHg 43%
    13:00 +14°C° 0 mm 3 m/S 476 mmHg 41%
    14:00 +13°C° 0.1 mm 3 m/S 475 mmHg 42%
    15:00 +13°C° 0.1 mm 3 m/S 475 mmHg 43%
    16:00 +13°C° 0.1 mm 3 m/S 474 mmHg 44%
    17:00 +11°C° 0 mm 3 m/S 474 mmHg 50%
    18:00 +10°C° 0 mm 2 m/S 473 mmHg 56%
    19:00 +9°C° 0 mm 2 m/S 473 mmHg 62%
    20:00 +8°C° 0 mm 2 m/S 473 mmHg 65%
    21:00 +7°C° 0 mm 3 m/S 473 mmHg 67%
    22:00 +7°C° 0 mm 3 m/S 473 mmHg 70%
    23:00 +6°C° 0 mm 2 m/S 472 mmHg 74%
    Mehr zeigen